This is the latest recevied weather packets stored in our database for station/object AC1IX. If no packets are shown the sender has not sent any weather packets the latest 10 day(s).
| Time | Temp. | Humidity | Pressure | Rain* | Wind** | Luminosity | Snow |
|---|---|---|---|---|---|---|---|
| 1777839697 | 10.56° C | 45% | 1009.4 hPa | 0 mm | - | 179 W/m² | - |
| 1777839394 | 9.44° C | 48% | 1009.3 hPa | 0 mm | - | 211 W/m² | - |
| 1777839091 | 10.56° C | 44% | 1009.3 hPa | 0 mm | - | 166 W/m² | - |
| 1777838787 | 10° C | 45% | 1009.5 hPa | 0 mm | - | 220 W/m² | - |
| 1777838484 | 9.44° C | 49% | 1009.4 hPa | 0 mm | - | 239 W/m² | - |
| 1777838181 | 9.44° C | 47% | 1009.7 hPa | 0 mm | - | 208 W/m² | - |
| 1777837878 | 9.44° C | 47% | 1009.6 hPa | 0 mm | - | 223 W/m² | - |
| 1777835448 | 8.89° C | 49% | 1010 hPa | 0 mm | - | 180 W/m² | - |
| 1777835145 | 8.89° C | 46% | 1009.9 hPa | 0 mm | - | 261 W/m² | - |
| 1777834539 | 8.89° C | 47% | 1009.9 hPa | 0 mm | - | 223 W/m² | - |
| 1777833935 | 8.89° C | 47% | 1010.1 hPa | 0 mm | - | 215 W/m² | - |
| 1777833328 | 9.44° C | 49% | 1009.9 hPa | 0 mm | - | 270 W/m² | - |
| 1777833027 | 8.89° C | 49% | 1009.7 hPa | 0 mm | - | 264 W/m² | - |
| 1777831814 | 8.89° C | 49% | 1009.8 hPa | 0 mm | - | 206 W/m² | - |
| 1777831512 | 8.33° C | 49% | 1009.9 hPa | 0 mm | - | 223 W/m² | - |
| 1777827268 | 8.89° C | 53% | 1009.7 hPa | 0 mm | - | 107 W/m² | - |
| 1777826357 | 7.78° C | 56% | 1009.8 hPa | 0 mm | - | 309 W/m² | - |
| 1777826055 | 7.78° C | 58% | 1009.7 hPa | 0 mm | - | 257 W/m² | - |
| 1777824539 | 6.67° C | 58% | 1010.1 hPa | 0 mm | - | 104 W/m² | - |
| 1777823931 | 7.22° C | 56% | 1010 hPa | 0 mm | - | 127 W/m² | - |
| 1777821814 | 8.33° C | 52% | 1010.2 hPa | 0 mm | - | 157 W/m² | - |
| 1777821511 | 8.33° C | 51% | 1010 hPa | 0 mm | - | 240 W/m² | - |
| 1777820298 | 7.22° C | 62% | 1010.4 hPa | 0 mm | - | 207 W/m² | - |
| 1777816662 | 5.56° C | 79% | 1010.7 hPa | 0 mm | - | 101 W/m² | - |
| 1777815451 | 5.56° C | 79% | 1011.1 hPa | 0 mm | - | 58 W/m² | - |
* Rain latest hour (hover to see other rain measurements)
** Current wind speed in m/s (hover to see current wind gust speed)